U vindt ons ook hier:

Het Weer Aktueel

UK Metoffice

European Weather Network

Weather Underground

Citizen Weather Observer Program (CWOP)



Select another period ( hide this area )

Eenheden Periode Custom range Directly to
Metrisch Engels Beide
Dagelijkse Wekelijkse Maandelijkse Jaarlijkse
use both date-selectors for a custom range
previous Dag
With this date

WeatherUnderground graphs for this period ( click here )


Dagelijkse Samenvatting Woensdag 22 september 2021
Tijd Temp. ( °C ) Dew pt. ( °C ) Wind ( km/h ) van Windvlaag ( km/h ) Luchtdruk ( hPa ) Humid.( % ) Rainrate ( cm ) Zonneschijn ( W/m2 )
Hoog19,8 14,2 8,0 ZZW ( 107/151 ) 18,0 1030,8 85 - 643
Gemiddeld12,6 9,5 0,9 Kalm #140/161 2,1 1029,5 82 - 321 #71/161
Laag9,8 7,2 -   0,0 1028,5 68 -  
Dagelijkse Tabular details for Woensdag 22 september 2021
Tijd Temp. ( °C ) Dew pt. ( °C ) Wind ( km/h ) van Windvlaag ( km/h ) Luchtdruk ( hPa ) Humid.( % ) Rainrate ( cm ) Zonneschijn ( W/m2 )
00:04 11,4 8,4   Kalm   1030,8 82 - -
00:09 11,3 8,3   Kalm   1030,6 82 - -
00:14 11,5 8,7   Kalm   1030,6 83 - -
00:19 11,6 8,8   Kalm   1030,6 83 - -
00:24 11,8 9,0   Kalm   1030,6 83 - -
00:29 11,7 8,9   Kalm   1030,6 83 - -
00:34 11,7 8,7   Kalm   1030,6 82 - -
00:39 11,7 8,7   Kalm   1030,5 82 - -
00:44 11,7 8,7   Kalm   1030,5 82 - -
00:49 11,7 8,7   Kalm   1030,4 82 - -
00:54 11,7 8,7   Kalm   1030,3 82 - -
00:59 11,7 8,7   Kalm   1030,3 82 - -
01:04 11,6 8,6   Kalm   1030,3 82 - -
01:09 11,6 8,6   Kalm   1030,3 82 - -
01:14 11,4 8,4   Kalm   1030,2 82 - -
01:19 11,6 8,8   Kalm   1030,2 83 - -
01:24 11,6 8,6   Kalm   1030,3 82 - -
01:29 11,6 8,6   Kalm   1030,2 82 - -
01:34 11,6 8,6   Kalm   1030,3 82 - -
01:39 11,3 8,3   Kalm   1030,3 82 - -
01:44 11,4 8,6   Kalm   1030,2 83 - -
01:49 11,3 8,3   Kalm   1030,1 82 - -
01:54 11,2 8,3   Kalm   1030,0 83 - -
01:59 11,0 8,2   Kalm   1030,0 83 - -
02:04 10,9 8,1   Kalm   1029,9 83 - -
02:09 10,9 8,1   Kalm   1029,8 83 - -
02:14 10,8 8,0   Kalm   1029,9 83 - -
02:19 11,1 8,3   Kalm   1029,9 83 - -
02:24 11,2 8,4   Kalm   1029,9 83 - -
02:29 11,3 8,5   Kalm   1030,0 83 - -
02:34 11,3 8,5   Kalm   1030,0 83 - -
02:39 11,1 8,3   Kalm   1029,9 83 - -
02:44 11,1 8,3   Kalm   1029,9 83 - -
02:49 11,1 8,3   Kalm   1029,9 83 - -
02:54 10,8 8,0   Kalm   1029,9 83 - -
02:59 10,8 8,0   Kalm   1029,9 83 - -
03:04 10,8 8,0   Kalm   1029,9 83 - -
03:09 11,1 8,5   Kalm   1029,8 84 - -
03:14 11,1 8,5   Kalm   1029,8 84 - -
03:19 10,7 7,9   Kalm   1029,7 83 - -
03:24 10,6 7,8   Kalm   1029,6 83 - -
03:29 10,8 8,2   Kalm   1029,6 84 - -
03:34 11,1 8,5   Kalm   1029,5 84 - -
03:39 11,0 8,3   Kalm   1029,5 84 - -
03:44 10,8 8,2   Kalm   1029,6 84 - -
03:49 10,9 8,3   Kalm   1029,7 84 - -
03:54 11,0 8,4   Kalm   1029,6 84 - -
03:59 11,1 8,5   Kalm   1029,6 84 - -
04:04 11,1 8,5   Kalm   1029,6 84 - -
04:09 10,9 8,1   Kalm   1029,5 83 - -
04:14 10,6 7,8   Kalm   1029,6 83 - -
04:19 10,3 7,6   Kalm   1029,6 83 - -
04:24 10,2 7,4   Kalm   1029,6 83 - -
04:29 9,9 7,3   Kalm   1029,5 84 - -
04:34 9,9 7,3   Kalm   1029,5 84 - -
04:39 9,8 7,2   Kalm   1029,4 84 - -
04:44 9,8 7,2   Kalm   1029,5 84 - -
04:49 9,9 7,3   Kalm   1029,5 84 - -
04:54 10,0 7,4   Kalm   1029,4 84 - -
04:59 10,1 7,5   Kalm   1029,4 84 - -
05:04 9,9 7,3   Kalm   1029,4 84 - -
05:09 9,8 7,2   Kalm   1029,3 84 - -
05:14 10,2 7,6   Kalm   1029,3 84 - -
05:19 10,3 7,7   Kalm   1029,2 84 - -
05:24 10,2 7,6   Kalm   1029,2 84 - -
05:29 10,3 7,7   Kalm   1029,2 84 - -
05:34 10,2 7,6   Kalm   1029,2 84 - -
05:39 10,1 7,5   Kalm   1029,2 84 - -
05:44 10,3 7,7   Kalm   1029,2 84 - -
05:49 10,3 7,7   Kalm   1029,1 84 - -
05:54 10,3 7,7   Kalm   1029,1 84 - -
05:59 10,4 7,8   Kalm   1029,1 84 - -
06:04 10,3 7,7   Kalm   1029,0 84 - -
06:09 10,3 7,7   Kalm   1029,0 84 - -
06:14 10,3 7,7   Kalm   1029,0 84 - -
06:19 10,7 8,1   Kalm   1029,0 84 - -
06:24 10,6 8,0   Kalm   1029,0 84 - -
06:29 10,6 8,0   Kalm   1029,0 84 - -
06:34 10,4 7,8   Kalm   1029,0 84 - -
06:39 10,3 7,7   Kalm   1029,1 84 - -
06:44 10,2 7,6   Kalm   1029,1 84 - -
06:49 10,2 7,6   Kalm   1029,1 84 - -
06:54 10,4 7,8   Kalm   1029,1 84 - -
06:59 10,3 7,7   Kalm   1029,1 84 - -
07:04 10,1 7,5   Kalm   1029,1 84 - -
07:09 10,1 7,5   Kalm   1029,2 84 - -
07:14 10,0 7,4   Kalm   1029,3 84 - -
07:19 10,2 7,8   Kalm   1029,3 85 - -
07:24 10,4 7,9   Kalm   1029,3 85 - -
07:29 10,5 8,1   Kalm   1029,3 85 - -
07:34 10,6 8,2   Kalm   1029,2 85 - 5
07:39 10,6 8,2   Kalm   1029,3 85 - 7
07:44 10,4 7,8   Kalm   1029,3 84 - 12
07:49 10,3 7,7   Kalm   1029,3 84 - 16
07:54 10,3 7,7   Kalm   1029,3 84 - 21
07:59 10,4 7,8   Kalm   1029,3 84 - 26
08:04 10,4 8,0   Kalm   1029,2 85 - 33
08:09 10,5 8,1   Kalm   1029,3 85 - 39
08:14 10,5 8,1   Kalm   1029,3 85 - 44
08:19 10,4 8,0   Kalm   1029,3 85 - 49
08:24 9,8 7,2   Kalm   1029,4 84 - 53
08:29 9,9 7,3   Kalm   1029,4 84 - 53
08:34 10,6 8,2   Kalm   1029,4 85 - 67
08:39 10,7 8,3   Kalm   1029,4 85 - 77
08:44 10,9 8,5   Kalm   1029,3 85 - 79
08:49 11,1 8,7   Kalm   1029,4 85 - 76
08:54 11,3 8,7   Kalm   1029,4 85 - 81
08:59 11,4 8,9   Kalm   1029,4 85 - 86
09:04 11,6 9,0   Kalm   1029,4 85 - 93
09:09 11,7 9,1   Kalm   1029,5 84 - 120
09:14 11,9 9,3   Kalm   1029,5 84 - 141
09:19 12,2 9,6   Kalm   1029,5 84 - 148
09:24 12,4 9,8   Kalm   1029,6 84 - 156
09:29 12,6 9,9   Kalm   1029,6 84 - 186
09:34 12,8 10,2   Kalm   1029,6 84 - 176
09:39 12,9 10,3   Kalm   1029,6 84 - 186
09:44 13,0 10,2   Kalm   1029,5 83 - 172
09:49 13,1 10,3   Kalm   1029,5 83 - 181
09:54 13,2 10,4   Kalm   1029,4 83 - 216
09:59 13,4 10,4   Kalm   1029,4 82 - 225
10:04 13,7 10,7   Kalm   1029,3 82 - 213
10:09 14,1 11,1   Kalm   1029,4 82 - 299
10:14 14,4 11,3   Kalm   1029,3 82 - 279
10:19 14,7 11,4   Kalm   1029,3 81 - 309
10:24 14,9 11,7   Kalm   1029,3 81 - 306
10:29 15,2 11,9   Kalm   1029,3 81 - 322
10:34 15,4 12,2   Kalm   1029,3 81 - 374
10:39 15,8 12,3   Kalm   1029,4 81 - 387
10:44 16,0 12,4   Kalm   1029,3 80 - 415
10:49 16,1 12,4   Kalm   1029,4 79 - 408
10:54 16,1 12,4   Kalm   1029,5 79 - 313
10:59 16,3 12,7   Kalm   1029,4 79 - 348
11:04 16,4 12,7   Kalm   1029,4 79 - 427
11:09 16,7 12,8   Kalm   1029,4 79 - 473
11:14 16,8 12,7   Kalm   1029,4 77 - 443
11:19 16,9 12,7   Kalm   1029,4 77 - 473
11:24 17,0 12,9   Kalm   1029,4 77 - 454
11:29 17,1 12,8   Kalm   1029,4 76 - 434
11:34 17,2 12,9   Kalm   1029,3 76 - 496
11:39 17,7 13,6   Kalm   1029,2 77 - 547
11:44 17,8 13,6 3,0 ZZW 16,0 1029,2 77 - 520
11:49 17,8 13,3 6,0 ZZW 16,0 1029,2 75 - 408
11:54 17,4 13,0 8,0 ZZW 16,0 1029,1 76 - 408
11:59 17,4 13,1 8,0 ZZW 15,0 1029,1 76 - 540
12:04 18,1 13,8 8,0 ZZW 15,0 1029,2 76 - 613
12:09 18,2 14,1 6,0 ZZW 15,0 1029,1 77 - 566
12:14 18,4 14,1 8,0 ZW 16,0 1029,1 76 - 582
12:19 18,5 13,8 8,0 ZW 16,0 1029,2 74 - 598
12:24 18,6 13,9 8,0 ZZW 18,0 1029,1 74 - 591
12:29 18,4 13,7 8,0 ZZW 18,0 1029,1 74 - 610
12:34 18,6 13,7 8,0 ZZW 18,0 1029,1 74 - 612
12:39 19,2 14,2 6,0 ZZW 15,0 1029,1 74 - 617
12:44 19,2 14,1 6,0 ZZW 16,0 1029,0 72 - 612
12:49 19,6 14,2 6,0 ZW 16,0 1029,0 72 - 610
12:54 19,7 14,1 6,0 ZW 16,0 1029,0 70 - 619
12:59 19,4 14,0 8,0 ZZW 15,0 1028,9 71 - 619
13:04 19,4 13,8 8,0 ZZW 15,0 1028,9 70 - 643
13:09 19,3 13,9 8,0 ZZW 15,0 1028,8 71 - 643
13:14 19,6 14,0 8,0 ZZW 16,0 1028,7 71 - 628
13:19 19,8 14,1 8,0 ZW 16,0 1028,6 70 - 619
13:24 19,7 13,6 8,0 ZW 16,0 1028,5 68 - 610
Dagelijkse Samenvatting Woensdag 22 september 2021
Tijd Temp. ( °C ) Dew pt. ( °C ) Wind ( km/h ) van Windvlaag ( km/h ) Luchtdruk ( hPa ) Humid.( % ) Rainrate ( cm ) Zonneschijn ( W/m2 )
Hoog19,8 14,2 8,0 ZZW ( 107/151 ) 18,0 1030,8 85 - 643
Gemiddeld12,6 9,5 0,9 Kalm #140/161 2,1 1029,5 82 - 321 #71/161
Laag9,8 7,2 -   0,0 1028,5 68 -  
Dagelijkse Tabular details for Woensdag 22 september 2021
Tijd Temp. ( °C ) Dew pt. ( °C ) Wind ( km/h ) van Windvlaag ( km/h ) Luchtdruk ( hPa ) Humid.( % ) Rainrate ( cm ) Zonneschijn ( W/m2 )
00:04 11,4 8,4   Kalm   1030,8 82 - -
00:09 11,3 8,3   Kalm   1030,6 82 - -
00:14 11,5 8,7   Kalm   1030,6 83 - -
00:19 11,6 8,8   Kalm   1030,6 83 - -
00:24 11,8 9,0   Kalm   1030,6 83 - -
00:29 11,7 8,9   Kalm   1030,6 83 - -
00:34 11,7 8,7   Kalm   1030,6 82 - -
00:39 11,7 8,7   Kalm   1030,5 82 - -
00:44 11,7 8,7   Kalm   1030,5 82 - -
00:49 11,7 8,7   Kalm   1030,4 82 - -
00:54 11,7 8,7   Kalm   1030,3 82 - -
00:59 11,7 8,7   Kalm   1030,3 82 - -
01:04 11,6 8,6   Kalm   1030,3 82 - -
01:09 11,6 8,6   Kalm   1030,3 82 - -
01:14 11,4 8,4   Kalm   1030,2 82 - -
01:19 11,6 8,8   Kalm   1030,2 83 - -
01:24 11,6 8,6   Kalm   1030,3 82 - -
01:29 11,6 8,6   Kalm   1030,2 82 - -
01:34 11,6 8,6   Kalm   1030,3 82 - -
01:39 11,3 8,3   Kalm   1030,3 82 - -
01:44 11,4 8,6   Kalm   1030,2 83 - -
01:49 11,3 8,3   Kalm   1030,1 82 - -
01:54 11,2 8,3   Kalm   1030,0 83 - -
01:59 11,0 8,2   Kalm   1030,0 83 - -
02:04 10,9 8,1   Kalm   1029,9 83 - -
02:09 10,9 8,1   Kalm   1029,8 83 - -
02:14 10,8 8,0   Kalm   1029,9 83 - -
02:19 11,1 8,3   Kalm   1029,9 83 - -
02:24 11,2 8,4   Kalm   1029,9 83 - -
02:29 11,3 8,5   Kalm   1030,0 83 - -
02:34 11,3 8,5   Kalm   1030,0 83 - -
02:39 11,1 8,3   Kalm   1029,9 83 - -
02:44 11,1 8,3   Kalm   1029,9 83 - -
02:49 11,1 8,3   Kalm   1029,9 83 - -
02:54 10,8 8,0   Kalm   1029,9 83 - -
02:59 10,8 8,0   Kalm   1029,9 83 - -
03:04 10,8 8,0   Kalm   1029,9 83 - -
03:09 11,1 8,5   Kalm   1029,8 84 - -
03:14 11,1 8,5   Kalm   1029,8 84 - -
03:19 10,7 7,9   Kalm   1029,7 83 - -
03:24 10,6 7,8   Kalm   1029,6 83 - -
03:29 10,8 8,2   Kalm   1029,6 84 - -
03:34 11,1 8,5   Kalm   1029,5 84 - -
03:39 11,0 8,3   Kalm   1029,5 84 - -
03:44 10,8 8,2   Kalm   1029,6 84 - -
03:49 10,9 8,3   Kalm   1029,7 84 - -
03:54 11,0 8,4   Kalm   1029,6 84 - -
03:59 11,1 8,5   Kalm   1029,6 84 - -
04:04 11,1 8,5   Kalm   1029,6 84 - -
04:09 10,9 8,1   Kalm   1029,5 83 - -
04:14 10,6 7,8   Kalm   1029,6 83 - -
04:19 10,3 7,6   Kalm   1029,6 83 - -
04:24 10,2 7,4   Kalm   1029,6 83 - -
04:29 9,9 7,3   Kalm   1029,5 84 - -
04:34 9,9 7,3   Kalm   1029,5 84 - -
04:39 9,8 7,2   Kalm   1029,4 84 - -
04:44 9,8 7,2   Kalm   1029,5 84 - -
04:49 9,9 7,3   Kalm   1029,5 84 - -
04:54 10,0 7,4   Kalm   1029,4 84 - -
04:59 10,1 7,5   Kalm   1029,4 84 - -
05:04 9,9 7,3   Kalm   1029,4 84 - -
05:09 9,8 7,2   Kalm   1029,3 84 - -
05:14 10,2 7,6   Kalm   1029,3 84 - -
05:19 10,3 7,7   Kalm   1029,2 84 - -
05:24 10,2 7,6   Kalm   1029,2 84 - -
05:29 10,3 7,7   Kalm   1029,2 84 - -
05:34 10,2 7,6   Kalm   1029,2 84 - -
05:39 10,1 7,5   Kalm   1029,2 84 - -
05:44 10,3 7,7   Kalm   1029,2 84 - -
05:49 10,3 7,7   Kalm   1029,1 84 - -
05:54 10,3 7,7   Kalm   1029,1 84 - -
05:59 10,4 7,8   Kalm   1029,1 84 - -
06:04 10,3 7,7   Kalm   1029,0 84 - -
06:09 10,3 7,7   Kalm   1029,0 84 - -
06:14 10,3 7,7   Kalm   1029,0 84 - -
06:19 10,7 8,1   Kalm   1029,0 84 - -
06:24 10,6 8,0   Kalm   1029,0 84 - -
06:29 10,6 8,0   Kalm   1029,0 84 - -
06:34 10,4 7,8   Kalm   1029,0 84 - -
06:39 10,3 7,7   Kalm   1029,1 84 - -
06:44 10,2 7,6   Kalm   1029,1 84 - -
06:49 10,2 7,6   Kalm   1029,1 84 - -
06:54 10,4 7,8   Kalm   1029,1 84 - -
06:59 10,3 7,7   Kalm   1029,1 84 - -
07:04 10,1 7,5   Kalm   1029,1 84 - -
07:09 10,1 7,5   Kalm   1029,2 84 - -
07:14 10,0 7,4   Kalm   1029,3 84 - -
07:19 10,2 7,8   Kalm   1029,3 85 - -
07:24 10,4 7,9   Kalm   1029,3 85 - -
07:29 10,5 8,1   Kalm   1029,3 85 - -
07:34 10,6 8,2   Kalm   1029,2 85 - 5
07:39 10,6 8,2   Kalm   1029,3 85 - 7
07:44 10,4 7,8   Kalm   1029,3 84 - 12
07:49 10,3 7,7   Kalm   1029,3 84 - 16
07:54 10,3 7,7   Kalm   1029,3 84 - 21
07:59 10,4 7,8   Kalm   1029,3 84 - 26
08:04 10,4 8,0   Kalm   1029,2 85 - 33
08:09 10,5 8,1   Kalm   1029,3 85 - 39
08:14 10,5 8,1   Kalm   1029,3 85 - 44
08:19 10,4 8,0   Kalm   1029,3 85 - 49
08:24 9,8 7,2   Kalm   1029,4 84 - 53
08:29 9,9 7,3   Kalm   1029,4 84 - 53
08:34 10,6 8,2   Kalm   1029,4 85 - 67
08:39 10,7 8,3   Kalm   1029,4 85 - 77
08:44 10,9 8,5   Kalm   1029,3 85 - 79
08:49 11,1 8,7   Kalm   1029,4 85 - 76
08:54 11,3 8,7   Kalm   1029,4 85 - 81
08:59 11,4 8,9   Kalm   1029,4 85 - 86
09:04 11,6 9,0   Kalm   1029,4 85 - 93
09:09 11,7 9,1   Kalm   1029,5 84 - 120
09:14 11,9 9,3   Kalm   1029,5 84 - 141
09:19 12,2 9,6   Kalm   1029,5 84 - 148
09:24 12,4 9,8   Kalm   1029,6 84 - 156
09:29 12,6 9,9   Kalm   1029,6 84 - 186
09:34 12,8 10,2   Kalm   1029,6 84 - 176
09:39 12,9 10,3   Kalm   1029,6 84 - 186
09:44 13,0 10,2   Kalm   1029,5 83 - 172
09:49 13,1 10,3   Kalm   1029,5 83 - 181
09:54 13,2 10,4   Kalm   1029,4 83 - 216
09:59 13,4 10,4   Kalm   1029,4 82 - 225
10:04 13,7 10,7   Kalm   1029,3 82 - 213
10:09 14,1 11,1   Kalm   1029,4 82 - 299
10:14 14,4 11,3   Kalm   1029,3 82 - 279
10:19 14,7 11,4   Kalm   1029,3 81 - 309
10:24 14,9 11,7   Kalm   1029,3 81 - 306
10:29 15,2 11,9   Kalm   1029,3 81 - 322
10:34 15,4 12,2   Kalm   1029,3 81 - 374
10:39 15,8 12,3   Kalm   1029,4 81 - 387
10:44 16,0 12,4   Kalm   1029,3 80 - 415
10:49 16,1 12,4   Kalm   1029,4 79 - 408
10:54 16,1 12,4   Kalm   1029,5 79 - 313
10:59 16,3 12,7   Kalm   1029,4 79 - 348
11:04 16,4 12,7   Kalm   1029,4 79 - 427
11:09 16,7 12,8   Kalm   1029,4 79 - 473
11:14 16,8 12,7   Kalm   1029,4 77 - 443
11:19 16,9 12,7   Kalm   1029,4 77 - 473
11:24 17,0 12,9   Kalm   1029,4 77 - 454
11:29 17,1 12,8   Kalm   1029,4 76 - 434
11:34 17,2 12,9   Kalm   1029,3 76 - 496
11:39 17,7 13,6   Kalm   1029,2 77 - 547
11:44 17,8 13,6 3,0 ZZW 16,0 1029,2 77 - 520
11:49 17,8 13,3 6,0 ZZW 16,0 1029,2 75 - 408
11:54 17,4 13,0 8,0 ZZW 16,0 1029,1 76 - 408
11:59 17,4 13,1 8,0 ZZW 15,0 1029,1 76 - 540
12:04 18,1 13,8 8,0 ZZW 15,0 1029,2 76 - 613
12:09 18,2 14,1 6,0 ZZW 15,0 1029,1 77 - 566
12:14 18,4 14,1 8,0 ZW 16,0 1029,1 76 - 582
12:19 18,5 13,8 8,0 ZW 16,0 1029,2 74 - 598
12:24 18,6 13,9 8,0 ZZW 18,0 1029,1 74 - 591
12:29 18,4 13,7 8,0 ZZW 18,0 1029,1 74 - 610
12:34 18,6 13,7 8,0 ZZW 18,0 1029,1 74 - 612
12:39 19,2 14,2 6,0 ZZW 15,0 1029,1 74 - 617
12:44 19,2 14,1 6,0 ZZW 16,0 1029,0 72 - 612
12:49 19,6 14,2 6,0 ZW 16,0 1029,0 72 - 610
12:54 19,7 14,1 6,0 ZW 16,0 1029,0 70 - 619
12:59 19,4 14,0 8,0 ZZW 15,0 1028,9 71 - 619
13:04 19,4 13,8 8,0 ZZW 15,0 1028,9 70 - 643
13:09 19,3 13,9 8,0 ZZW 15,0 1028,8 71 - 643
13:14 19,6 14,0 8,0 ZZW 16,0 1028,7 71 - 628
13:19 19,8 14,1 8,0 ZW 16,0 1028,6 70 - 619
13:24 19,7 13,6 8,0 ZW 16,0 1028,5 68 - 610

Download your copy of this data-set  here

Our weather-data as stored at Weather Underground. Script ontwikkeld door Jim McMurry. Aangepast voor de template door Leuven-Template.eu

Apparatuur in gebruik:

Weerstation
Davis VP2

Weerprogramma
Cumulus

Weercomputer
Gigabyte Brix

Webleverancier
GetHost

Davis VP2

Cumulus

Gigabyte Brix

GetHost